TimeCDT,TemperatureF,Dew PointF,Humidity,Sea Level PressureIn,VisibilityMPH,Wind Direction,Wind SpeedMPH,Gust SpeedMPH,PrecipitationIn,Events,Conditions,WindDirDegrees,DateUTC
12:15 AM,5.0,1.4,85,30.21,7.0,WNW,13.8,-,N/A,,Clear,300,2013-03-10 06:15:00
12:35 AM,5.0,1.4,85,30.22,7.0,WNW,12.7,-,N/A,,Clear,300,2013-03-10 06:35:00
12:55 AM,3.2,-0.4,85,30.21,7.0,WNW,12.7,-,N/A,,Clear,300,2013-03-10 06:55:00
1:15 AM,3.2,-0.4,85,30.22,7.0,NW,13.8,-,N/A,,Clear,310,2013-03-10 07:15:00
1:35 AM,5.0,1.4,85,30.22,7.0,NW,12.7,-,N/A,,Clear,310,2013-03-10 07:35:00
1:55 AM,3.2,-0.4,85,30.23,7.0,WNW,10.4,-,N/A,,Clear,300,2013-03-10 07:55:00
3:15 AM,1.4,-0.4,92,30.23,7.0,WNW,11.5,-,N/A,,Clear,300,2013-03-10 08:15:00
3:35 AM,1.4,-0.4,92,30.23,7.0,NW,15.0,-,N/A,,Clear,310,2013-03-10 08:35:00
3:55 AM,1.4,-0.4,92,30.22,7.0,NW,12.7,-,N/A,,Clear,310,2013-03-10 08:55:00
4:15 AM,1.4,-0.4,92,30.22,7.0,WNW,10.4,-,N/A,,Clear,300,2013-03-10 09:15:00
4:35 AM,1.4,-2.2,85,30.23,7.0,WNW,9.2,-,N/A,,Clear,300,2013-03-10 09:35:00
4:55 AM,1.4,-0.4,92,30.23,7.0,West,6.9,-,N/A,,Clear,270,2013-03-10 09:55:00
5:15 AM,-0.4,-2.2,92,30.22,7.0,WSW,5.8,-,N/A,,Clear,250,2013-03-10 10:15:00
5:35 AM,-0.4,-2.2,92,30.23,-9999.0,West,9.2,-,N/A,,Mostly Cloudy,280,2013-03-10 10:35:00
5:55 AM,-0.4,-2.2,92,30.23,6.0,West,9.2,-,N/A,,Scattered Clouds,280,2013-03-10 10:55:00
6:15 AM,1.4,-2.2,85,30.24,7.0,West,10.4,-,N/A,,Clear,280,2013-03-10 11:15:00
6:35 AM,-0.4,-2.2,92,30.24,7.0,West,8.1,-,N/A,,Clear,280,2013-03-10 11:35:00
7:35 AM,-0.4,-4.0,85,30.26,7.0,Calm,Calm,-,N/A,Snow,Light Snow,0,2013-03-10 12:35:00
7:55 AM,-0.4,-2.2,92,30.26,6.0,Calm,Calm,-,N/A,,Overcast,0,2013-03-10 12:55:00
8:15 AM,-2.2,-5.8,85,30.26,-9999.0,SSE,3.5,-,N/A,Snow,Heavy Snow,150,2013-03-10 13:15:00
8:35 AM,-2.2,-5.8,85,30.25,-9999.0,South,5.8,-,N/A,,Overcast,180,2013-03-10 13:35:00
8:55 AM,-0.4,-5.8,78,30.26,5.0,SSW,9.2,-,N/A,,Haze,200,2013-03-10 13:55:00
9:15 AM,-0.4,-4.0,85,30.26,-9999.0,South,6.9,-,N/A,,Overcast,190,2013-03-10 14:15:00
9:35 AM,-0.4,-4.0,85,30.26,5.0,SSW,6.9,-,N/A,,Overcast,200,2013-03-10 14:35:00
9:55 AM,-0.4,-4.0,85,30.26,7.0,SSW,5.8,-,N/A,,Mostly Cloudy,210,2013-03-10 14:55:00
10:15 AM,1.4,-0.4,92,30.26,7.0,SSW,8.1,-,N/A,,Scattered Clouds,210,2013-03-10 15:15:00
10:35 AM,3.2,-0.4,85,30.26,7.0,SSW,8.1,-,N/A,,Partly Cloudy,210,2013-03-10 15:35:00
10:55 AM,1.4,-0.4,92,30.25,7.0,South,8.1,-,N/A,,Clear,180,2013-03-10 15:55:00
11:15 AM,3.2,-0.4,85,30.22,4.0,SSW,13.8,-,N/A,,Partly Cloudy,200,2013-03-10 16:15:00
11:35 AM,5.0,1.4,85,30.24,4.0,SSW,11.5,-,N/A,,Partly Cloudy,210,2013-03-10 16:35:00
11:55 AM,5.0,1.4,85,30.25,5.0,SW,10.4,-,N/A,,Partly Cloudy,220,2013-03-10 16:55:00
12:15 PM,6.8,3.2,85,30.25,6.0,SSW,10.4,-,N/A,,Partly Cloudy,200,2013-03-10 17:15:00
12:35 PM,8.6,5.0,85,30.23,7.0,South,11.5,-,N/A,Snow,Light Snow,190,2013-03-10 17:35:00
12:55 PM,8.6,5.0,85,30.23,5.0,SSW,11.5,-,N/A,,Clear,200,2013-03-10 17:55:00
1:15 PM,10.4,6.8,85,30.22,5.0,SSW,13.8,-,N/A,,Clear,210,2013-03-10 18:15:00
1:35 PM,10.4,8.6,92,30.22,6.0,SSW,13.8,-,N/A,,Clear,200,2013-03-10 18:35:00
1:55 PM,12.2,8.6,85,30.21,7.0,SSW,13.8,-,N/A,,Clear,200,2013-03-10 18:55:00
2:15 PM,14.0,10.4,86,30.19,8.0,SSW,13.8,-,N/A,,Clear,200,2013-03-10 19:15:00
2:35 PM,14.0,10.4,86,30.18,8.0,SSW,12.7,-,N/A,,Clear,210,2013-03-10 19:35:00
2:55 PM,15.8,10.4,79,30.17,8.0,SSW,12.7,-,N/A,,Clear,200,2013-03-10 19:55:00
3:15 PM,15.8,12.2,86,30.15,8.0,South,12.7,-,N/A,,Clear,180,2013-03-10 20:15:00
3:35 PM,17.6,14.0,86,30.13,8.0,SSW,12.7,-,N/A,,Clear,200,2013-03-10 20:35:00
3:55 PM,17.6,14.0,86,30.13,8.0,SSW,15.0,-,N/A,,Clear,200,2013-03-10 20:55:00
4:15 PM,17.6,14.0,86,30.12,8.0,SSW,12.7,-,N/A,,Clear,200,2013-03-10 21:15:00
4:35 PM,19.4,14.0,80,30.11,8.0,SSW,12.7,-,N/A,,Clear,200,2013-03-10 21:35:00
4:55 PM,19.4,15.8,86,30.11,8.0,SSW,10.4,-,N/A,,Clear,200,2013-03-10 21:55:00
5:15 PM,19.4,15.8,86,30.10,7.0,SSW,11.5,-,N/A,,Clear,200,2013-03-10 22:15:00
5:35 PM,19.4,15.8,86,30.08,7.0,South,10.4,-,N/A,,Clear,190,2013-03-10 22:35:00
5:55 PM,19.4,15.8,86,30.07,7.0,SSW,10.4,-,N/A,,Clear,200,2013-03-10 22:55:00
6:15 PM,19.4,15.8,86,30.06,8.0,SSW,12.7,-,N/A,,Clear,200,2013-03-10 23:15:00
6:35 PM,19.4,15.8,86,30.04,8.0,SSW,15.0,-,N/A,,Clear,200,2013-03-10 23:35:00
6:55 PM,19.4,15.8,86,30.04,7.0,SSW,12.7,-,N/A,,Clear,200,2013-03-10 23:55:00
7:15 PM,17.6,15.8,93,30.04,8.0,South,12.7,-,N/A,,Clear,190,2013-03-11 00:15:00
7:35 PM,17.6,15.8,93,30.03,8.0,South,12.7,-,N/A,,Clear,190,2013-03-11 00:35:00
7:55 PM,17.6,15.8,93,30.02,8.0,South,13.8,-,N/A,,Clear,190,2013-03-11 00:55:00
8:15 PM,19.4,15.8,86,30.01,9.0,South,13.8,-,N/A,,Clear,190,2013-03-11 01:15:00
8:35 PM,19.4,15.8,86,30.01,10.0,SSW,13.8,-,N/A,,Clear,200,2013-03-11 01:35:00
8:55 PM,19.4,15.8,86,30.01,10.0,SSW,15.0,-,N/A,,Clear,200,2013-03-11 01:55:00
9:15 PM,17.6,15.8,93,30.00,10.0,SSW,12.7,-,N/A,,Clear,200,2013-03-11 02:15:00
9:35 PM,17.6,15.8,93,29.99,10.0,South,10.4,-,N/A,,Mostly Cloudy,190,2013-03-11 02:35:00
9:55 PM,19.4,15.8,86,29.99,10.0,South,11.5,-,N/A,,Overcast,190,2013-03-11 02:55:00
10:15 PM,19.4,15.8,86,29.98,10.0,South,10.4,-,N/A,,Overcast,190,2013-03-11 03:15:00
10:35 PM,19.4,15.8,86,29.96,10.0,South,10.4,-,N/A,,Mostly Cloudy,180,2013-03-11 03:35:00
10:55 PM,19.4,15.8,86,29.96,10.0,South,11.5,-,N/A,,Clear,190,2013-03-11 03:55:00
11:15 PM,19.4,15.8,86,29.95,10.0,South,12.7,-,N/A,,Mostly Cloudy,190,2013-03-11 04:15:00
11:35 PM,19.4,14.0,80,29.94,10.0,South,11.5,-,N/A,,Mostly Cloudy,190,2013-03-11 04:35:00
12:15 AM,19.4,14.0,80,29.90,10.0,South,10.4,-,N/A,,Clear,180,2013-03-11 05:15:00
12:35 AM,19.4,15.8,86,29.89,10.0,SSW,12.7,-,N/A,,Clear,200,2013-03-11 05:35:00
12:55 AM,19.4,15.8,86,29.87,10.0,SSW,16.1,-,N/A,,Clear,200,2013-03-11 05:55:00